Hourly Weather Abay

Today, 28 November, Saturday

Time Temperature Precipitation Wind Pressure Humidity
00:00 +4°C° 0 mm 3 mps 719 mmHg 67%
01:00 +3°C° 0 mm 3 mps 719 mmHg 69%
02:00 +3°C° 0 mm 3 mps 719 mmHg 71%
03:00 +3°C° 0 mm 3 mps 720 mmHg 74%
04:00 +1°C° 0 mm 4 mps 721 mmHg 78%
05:00 +1°C° 0 mm 4 mps 721 mmHg 81%
06:00 0°C° 0.1 mm 8 mps 723 mmHg 78%
07:00 -1°C° 0.1 mm 11 mps 725 mmHg 74%
08:00 -3°C° 0.1 mm 15 mps 726 mmHg 70%
09:00 -1°C° 0 mm 15 mps 727 mmHg 68%
10:00 -1°C° 0 mm 15 mps 728 mmHg 66%
11:00 -1°C° 0 mm 13 mps 729 mmHg 64%
12:00 -1°C° 0 mm 13 mps 730 mmHg 62%
13:00 -1°C° 0 mm 13 mps 730 mmHg 60%
14:00 0°C° 0 mm 12 mps 731 mmHg 57%
15:00 -2°C° 0 mm 11 mps 731 mmHg 64%
16:00 -3°C° 0 mm 9 mps 732 mmHg 71%
17:00 -3°C° 0 mm 6 mps 733 mmHg 77%
18:00 -4°C° 0 mm 5 mps 733 mmHg 79%
19:00 -2°C° 0 mm 3 mps 733 mmHg 81%
20:00 -3°C° 0 mm 2 mps 734 mmHg 83%
21:00 -3°C° 0 mm 2 mps 734 mmHg 84%
22:00 -1°C° 0 mm 1 mps 734 mmHg 85%
23:00 -2°C° 0 mm 1 mps 734 mmHg 86%

Tomorrow, 29 November, Sunday

Time Temperature Precipitation Wind Pressure Humidity
00:00 -2°C° 0 mm 1 mps 733 mmHg 88%
01:00 -3°C° 0 mm 1 mps 733 mmHg 90%
02:00 -5°C° 0 mm 0 mps 733 mmHg 92%
03:00 -5°C° 0 mm 0 mps 733 mmHg 92%
04:00 -5°C° 0 mm 0 mps 733 mmHg 92%
05:00 -5°C° 0 mm 0 mps 734 mmHg 92%
06:00 -4°C° 0 mm 1 mps 734 mmHg 92%
07:00 -4°C° 0 mm 1 mps 734 mmHg 91%
08:00 -4°C° 0 mm 1 mps 733 mmHg 91%
09:00 -3°C° 0 mm 1 mps 733 mmHg 87%
10:00 -2°C° 0 mm 1 mps 733 mmHg 82%
11:00 -1°C° 0 mm 1 mps 733 mmHg 78%
12:00 -1°C° 0 mm 1 mps 733 mmHg 76%
13:00 0°C° 0 mm 1 mps 733 mmHg 75%
14:00 -2°C° 0 mm 2 mps 732 mmHg 73%
15:00 -3°C° 0 mm 2 mps 732 mmHg 75%
16:00 -3°C° 0 mm 2 mps 732 mmHg 77%
17:00 -4°C° 0 mm 2 mps 732 mmHg 79%
18:00 -4°C° 0 mm 2 mps 732 mmHg 80%
19:00 -3°C° 0 mm 1 mps 732 mmHg 80%
20:00 -3°C° 0 mm 1 mps 732 mmHg 81%
21:00 -4°C° 0 mm 1 mps 732 mmHg 82%
22:00 -4°C° 0 mm 1 mps 731 mmHg 83%
23:00 -6°C° 0 mm 1 mps 731 mmHg 85%

Day after tomorrow, 30 November, Monday

Time Temperature Precipitation Wind Pressure Humidity
00:00 -6°C° 0 mm 1 mps 731 mmHg 85%
01:00 -6°C° 0 mm 1 mps 731 mmHg 86%
02:00 -7°C° 0 mm 1 mps 730 mmHg 87%
03:00 -7°C° 0 mm 1 mps 730 mmHg 88%
04:00 -7°C° 0 mm 1 mps 730 mmHg 88%
05:00 -7°C° 0 mm 1 mps 730 mmHg 89%
06:00 -7°C° 0 mm 1 mps 730 mmHg 89%
07:00 -7°C° 0 mm 1 mps 730 mmHg 88%
08:00 -7°C° 0 mm 1 mps 729 mmHg 87%
09:00 -6°C° 0 mm 1 mps 729 mmHg 81%
10:00 -5°C° 0 mm 2 mps 729 mmHg 75%
11:00 -4°C° 0 mm 2 mps 729 mmHg 68%
12:00 -4°C° 0 mm 3 mps 729 mmHg 66%
13:00 -2°C° 0 mm 3 mps 728 mmHg 63%
14:00 -2°C° 0 mm 3 mps 728 mmHg 60%
15:00 -4°C° 0 mm 3 mps 728 mmHg 67%
16:00 -5°C° 0 mm 3 mps 728 mmHg 73%
17:00 -6°C° 0 mm 2 mps 727 mmHg 80%
18:00 -6°C° 0 mm 2 mps 727 mmHg 81%
19:00 -7°C° 0 mm 2 mps 727 mmHg 82%
20:00 -7°C° 0 mm 2 mps 727 mmHg 83%
21:00 -8°C° 0 mm 2 mps 726 mmHg 83%
22:00 -8°C° 0 mm 2 mps 726 mmHg 83%
23:00 -7°C° 0 mm 1 mps 726 mmHg 83%

1 December, Tuesday

Time Temperature Precipitation Wind Pressure Humidity
00:00 -7°C° 0 mm 1 mps 725 mmHg 83%
01:00 -7°C° 0 mm 1 mps 725 mmHg 83%
02:00 -7°C° 0 mm 1 mps 725 mmHg 83%
03:00 -8°C° 0 mm 1 mps 725 mmHg 84%
04:00 -8°C° 0 mm 1 mps 725 mmHg 84%
05:00 -8°C° 0 mm 1 mps 724 mmHg 85%
06:00 -8°C° 0 mm 1 mps 724 mmHg 84%
07:00 -8°C° 0 mm 0 mps 724 mmHg 84%
08:00 -8°C° 0 mm 0 mps 724 mmHg 84%
09:00 -7°C° 0 mm 0 mps 725 mmHg 78%
10:00 -6°C° 0 mm 0 mps 725 mmHg 73%
11:00 -5°C° 0 mm 0 mps 725 mmHg 68%
12:00 -3°C° 0 mm 1 mps 725 mmHg 65%
13:00 -2°C° 0 mm 1 mps 725 mmHg 62%
14:00 -2°C° 0 mm 1 mps 725 mmHg 59%
15:00 -2°C° 0 mm 1 mps 725 mmHg 63%
16:00 -3°C° 0 mm 1 mps 725 mmHg 67%
17:00 -6°C° 0 mm 2 mps 725 mmHg 71%
18:00 -4°C° 0 mm 1 mps 725 mmHg 71%
19:00 -3°C° 0 mm 1 mps 725 mmHg 71%
20:00 -3°C° 0 mm 1 mps 725 mmHg 71%
21:00 -3°C° 0 mm 1 mps 725 mmHg 72%
22:00 -3°C° 0 mm 1 mps 725 mmHg 74%
23:00 -3°C° 0 mm 1 mps 725 mmHg 75%

2 December, Wednesday

Time Temperature Precipitation Wind Pressure Humidity
00:00 -2°C° 0 mm 1 mps 724 mmHg 73%
01:00 -2°C° 0 mm 1 mps 724 mmHg 71%
02:00 -1°C° 0 mm 1 mps 724 mmHg 68%
03:00 -3°C° 0.1 mm 2 mps 724 mmHg 68%
04:00 -3°C° 0.1 mm 2 mps 724 mmHg 68%
05:00 -2°C° 0.1 mm 3 mps 724 mmHg 68%
06:00 -2°C° 0 mm 2 mps 724 mmHg 68%
07:00 -2°C° 0 mm 2 mps 724 mmHg 67%
08:00 0°C° 0 mm 1 mps 724 mmHg 67%
09:00 +1°C° 0 mm 1 mps 724 mmHg 63%
10:00 +3°C° 0 mm 1 mps 724 mmHg 59%
11:00 +4°C° 0 mm 1 mps 724 mmHg 55%
12:00 +5°C° 0 mm 1 mps 723 mmHg 53%
13:00 +6°C° 0 mm 1 mps 723 mmHg 51%
14:00 +7°C° 0 mm 1 mps 723 mmHg 50%
15:00 +5°C° 0 mm 1 mps 723 mmHg 54%
16:00 +4°C° 0 mm 1 mps 722 mmHg 59%
17:00 +2°C° 0 mm 1 mps 722 mmHg 64%
18:00 +2°C° 0 mm 1 mps 722 mmHg 64%
19:00 +2°C° 0 mm 1 mps 722 mmHg 64%
20:00 +2°C° 0 mm 1 mps 722 mmHg 65%
21:00 +2°C° 0 mm 0 mps 722 mmHg 66%
22:00 +2°C° 0 mm 0 mps 722 mmHg 67%
23:00 +2°C° 0 mm 0 mps 721 mmHg 68%

3 December, Thursday

Time Temperature Precipitation Wind Pressure Humidity
00:00 +1°C° 0 mm 0 mps 721 mmHg 70%
01:00 +1°C° 0 mm 0 mps 721 mmHg 71%
02:00 +1°C° 0 mm 0 mps 721 mmHg 72%
03:00 +1°C° 0 mm 0 mps 721 mmHg 71%
04:00 +1°C° 0 mm 0 mps 721 mmHg 71%
05:00 +2°C° 0 mm 0 mps 721 mmHg 70%
06:00 +2°C° 0 mm 0 mps 721 mmHg 69%
07:00 +3°C° 0 mm 1 mps 721 mmHg 69%
08:00 +3°C° 0 mm 1 mps 721 mmHg 68%
09:00 +4°C° 0 mm 0 mps 721 mmHg 65%
10:00 +5°C° 0 mm 0 mps 721 mmHg 61%
11:00 +7°C° 0 mm 0 mps 721 mmHg 57%
12:00 +7°C° 0 mm 0 mps 720 mmHg 57%
13:00 +8°C° 0 mm 0 mps 720 mmHg 57%
14:00 +8°C° 0 mm 0 mps 720 mmHg 57%
15:00 +7°C° 0 mm 0 mps 720 mmHg 61%
16:00 +6°C° 0 mm 0 mps 720 mmHg 66%
17:00 +5°C° 0 mm 0 mps 719 mmHg 70%
18:00 +6°C° 0.2 mm 1 mps 719 mmHg 73%
19:00 +6°C° 0.2 mm 1 mps 719 mmHg 77%
20:00 +5°C° 0.2 mm 2 mps 719 mmHg 80%
21:00 +6°C° 0.5 mm 1 mps 719 mmHg 84%
22:00 +6°C° 0.5 mm 1 mps 719 mmHg 87%
23:00 +5°C° 0.5 mm 1 mps 719 mmHg 90%
Show more

We Need Your Consent

Meteoprog and our Service Providers may store and access personal data such as cookies, device identifiers or other similar technologies on your device and process such data to personalise content and ads, as well as provide social media features and to analyse the traffic.

  • Store and/or access information on your device

    Cookies, device identifiers or other information can be stored or accessed on your device for the purposes indicated above.

  • Personalised ads and content, ad and content measurement, audience insights, and products development

    Ads and content can be personalised based on a profile. More data can be added to better personalise ads and content. Ad and content performance can be measured. Insights about the audience who saw the ads and content can be derived. Such data can be used to develop or improve user’s experience, systems and software.

By clicking ‘I Agree’ you will allow the use of indicated cookies, device identifiers, web beacons or other similar technologies. Your settings can be changed in the browser on your device.

For certain purposes, legitimate interests may be relied on, rather than consent. You can read more about this in our Privacy and Cookie Policy.